{"data":{"norad_id":68932,"epoch":"2026-09-19T23:05:18.447648Z","epoch_age_seconds":61892,"freshness":"FRESH","line1":"1 68932U 26098P   26262.96201907  .00002374  00000+0  34014-3 0  9995","line2":"2 68932  51.9049 346.5389 0000187 261.4186  98.6755 14.79955508 21691","mean_motion":14.79955508,"eccentricity":1.87e-5,"inclination_deg":51.9049,"raan_deg":346.5389,"arg_perigee_deg":261.4186,"mean_anomaly_deg":98.6755,"bstar":0.00034014,"rev_number":2169,"period_min":97.30022235236,"perigee_km":629.33353574748,"apogee_km":629.5956200465,"semimajor_km":7007.601577897,"source":"CELESTRAK","updated_at":"2026-09-20T09:00:24.579688Z"}}